Flag for Seychelles Weather past 2 weeks in Victoria, Seychelles

Now
77 °F

Passing clouds.


Feels Like: 78 °F
Forecast: 76 / 81 °F
Wind: 2 mph from Southwest

Location: National Airport

Current Time: Dec 21, 2014 at 12:17:03 AM

Latest Report: Dec 20, 2014 at 11:00 PM


Visibility: N/A

Pressure: 29.92 "Hg

Humidity: 94%

Dew point: 75 °F

Location of VictoriaLocation

Historic Weather in Victoria — Graph

°F

Victoria temperature yesterday

Maximum temperature yesterday: 86 °F (at 11:00 AM)
Minimum temperature yesterday: 77 °F (at 4:00 AM)
Average temperature yesterday: 81 °F

Past Weeks' High & Low Weather Summary

 TemperatureHumidityPressure
High88 °F (Dec 6, 9:00 AM)100% (Dec 12, 2:00 PM)29.95 "Hg (Dec 12, 2:00 PM)
Low75 °F (Dec 10, 6:00 AM)59% (Dec 8, 4:00 PM)29.77 "Hg (Dec 7, 3:00 PM)
Average81 °F82%29.87 "Hg
* Reported Dec 5 11:00 PM — Dec 20 11:00 PM, Victoria, Weather by CustomWeather, © 2014

Note: Actual official high and low records may vary slightly from our data, if they occured in-between our weather recording intervals... More about our weather records

Advertising

Victoria weather history for previous 24 hours

 ConditionsComfort  
Time TempWeatherWind HumidityBarometerVisibility
11:00 PM
Dec 20
77 °FPassing clouds.2 mph94%29.92 "HgN/A
10:00 PM79 °FPassing clouds.7 mph89%29.92 "HgN/A
9:00 PM79 °FPassing clouds.2 mph89%29.92 "HgN/A
8:00 PM79 °FPassing clouds.No wind89%29.92 "HgN/A
7:00 PM81 °FPassing clouds.No wind84%29.89 "HgN/A
6:00 PM82 °FScattered clouds.7 mph79%29.86 "HgN/A
5:00 PM84 °FScattered clouds.8 mph74%29.83 "HgN/A
4:00 PM84 °FScattered clouds.5 mph74%29.83 "HgN/A
3:00 PM86 °FScattered clouds.8 mph70%29.83 "HgN/A
2:00 PM86 °FScattered clouds.9 mph70%29.83 "HgN/A
1:00 PM82 °FScattered clouds.7 mph66%29.86 "HgN/A
12:00 PM86 °FScattered clouds.8 mph70%29.89 "HgN/A
11:00 AM86 °FScattered clouds.10 mph70%29.92 "HgN/A
10:00 AM84 °FScattered clouds.9 mph74%29.92 "HgN/A
9:00 AM82 °FScattered clouds.3 mph79%29.92 "HgN/A
8:00 AM81 °FScattered clouds.2 mph84%29.92 "HgN/A
7:00 AM79 °FScattered clouds.2 mph89%29.89 "HgN/A
6:00 AM77 °FPassing clouds.2 mph94%29.86 "HgN/A
5:00 AM77 °FPassing clouds.2 mph94%29.86 "HgN/A
4:00 AM77 °FPassing clouds.2 mph94%29.83 "HgN/A
3:00 AM79 °FSprinkles. Passing clouds.5 mph94%29.86 "HgN/A
2:00 AM82 °FPassing clouds.2 mph74%29.86 "HgN/A
1:00 AM82 °FPassing clouds.2 mph79%29.86 "HgN/A
12:00 AM82 °FPassing clouds.8 mph79%29.89 "HgN/A
Weather by CustomWeather, © 2014

See weather overviewHow to use our weather pages